This demonstration page uses our WeatherBlox Daily Observations layout. Learn more.

Left ArrowRight Arrow

Hourly Observations for August 31, 2017

Temp ( °F °C ) Dew Point ( °F °C ) Humidity (%) Winds ( mph kmh ) Pressure ( in mb ) Visibility ( mi km ) Precip ( " mm )
12:52 am 00:52 Clear 67 19.4 63 17.2 87 87 NE 6 9 30.00 1016 10 16 0.00 0.00
1:52 am 01:52 Clear 66 18.9 62 16.7 87 87 NE 7 11 29.99 1016 10 16 0.00 0.00
2:52 am 02:52 Clear 65 18.3 62 16.7 90 90 NNE 7 11 29.98 1015 10 16 0.00 0.00
3:52 am 03:52 Clear 63 17.2 61 16.1 93 93 NNE 7 11 29.98 1015 10 16 0.00 0.00
4:52 am 04:52 Clear 63 17.2 61 16.1 93 93 NNE 7 11 29.99 1016 10 16 0.00 0.00
5:52 am 05:52 Clear 63 17.2 61 16.1 93 93 NE 7 11 30.00 1016 10 16 0.00 0.00
6:52 am 06:52 Sunny 63 17.2 61 16.1 93 93 NE 8 13 30.00 1016 10 16 0.00 0.00
7:52 am 07:52 Sunny 64 17.8 62 16.7 93 93 NE 7 11 30.01 1016 10 16 0.00 0.00
8:52 am 08:52 Sunny 69 20.6 63 17.2 81 81 NE 14 22 30.01 1016 10 16 0.00 0.00
9:52 am 09:52 Sunny 74 23.3 64 17.8 71 71 ENE 15 24 30.01 1016 10 16 0.00 0.00
10:52 am 10:52 Sunny 76 24.4 63 17.2 64 64 ENE 17 28 30.01 1016 10 16 0.00 0.00
11:52 am 11:52 Sunny 77 25 63 17.2 62 62 NE 18 30 30.00 1016 10 16 0.00 0.00
12:52 pm 12:52 Sunny 77 25 63 17.2 62 62 NE 20 31 29.99 1016 10 16 0.00 0.00
1:52 pm 13:52 Partly Cloudy 78 25.6 62 16.7 58 58 NE 20 31 29.98 1015 10 16 0.00 0.00
2:52 pm 14:52 Mostly Sunny 79 26.1 63 17.2 58 58 N 16 26 29.97 1015 10 16 0.00 0.00
3:52 pm 15:52 Mostly Cloudy 79 26.1 62 16.7 56 56 NNE 16 26 29.96 1015 10 16 0.00 0.00
4:52 pm 16:52 Mostly Sunny 79 26.1 62 16.7 56 56 NNE 14 22 29.95 1014 10 16 0.00 0.00
5:52 pm 17:52 Partly Cloudy 77 25 61 16.1 58 58 NNE 15 24 29.96 1014 10 16 0.00 0.00
6:52 pm 18:52 Mostly Sunny 75 23.9 61 16.1 62 62 NNE 13 20 29.96 1015 10 16 0.00 0.00
7:52 pm 19:52 Clear 71 21.7 61 16.1 71 71 NNE 10 17 29.97 1015 10 16 0.00 0.00
8:52 pm 20:52 Clear 68 20 61 16.1 78 78 NNE 6 9 29.96 1015 10 16 0.00 0.00
9:52 pm 21:52 Clear 66 18.9 61 16.1 84 84 N 8 13 29.99 1016 10 16 0.00 0.00
10:52 pm 22:52 Clear 66 18.9 61 16.1 84 84 N 8 13 29.98 1015 10 16 0.00 0.00
11:52 pm 23:52 Clear 65 18.3 61 16.1 87 87 N 8 13 29.99 1016 10 16 0.00 0.00

Powered by AerisWeather